Flag for Nicaragua Weather past 2 weeks in Masaya, Nicaragua

Now
97 °F

Passing clouds.


Feels Like: 102 °F
Forecast: 73 / 94 °F
Wind: 12 mph from East

Location: Managua A. C. Sandino

Current Time: Apr 21, 2015 at 1:59:30 PM

Latest Report: Apr 21, 2015 at 1:00 PM


Visibility: 6 mi

Pressure: 29.77 "Hg

Humidity: 39%

Dew point: 68 °F

Location of MasayaLocation

Historic Weather in Masaya — Graph

°F

Masaya temperature yesterday

Maximum temperature yesterday: 97 °F (at 2:00 PM)
Minimum temperature yesterday: 77 °F (at 4:00 AM)
Average temperature yesterday: 87 °F

Past Weeks' High & Low Weather Summary

 TemperatureHumidityPressure
High99 °F (Apr 13, 2:00 PM)89% (Apr 18, 6:00 AM)29.95 "Hg (Apr 18, 6:00 AM)
Low73 °F (Apr 10, 4:00 AM)30% (Apr 9, 3:00 PM)29.68 "Hg (Apr 20, 4:00 PM)
Average86 °F58%29.83 "Hg
* Reported Apr 6 4:00 PM — Apr 21 1:00 PM, Masaya, Weather by CustomWeather, © 2015

Note: Actual official high and low records may vary slightly from our data, if they occured in-between our weather recording intervals... More about our weather records

Advertising

Masaya weather history for previous 24 hours

 ConditionsComfort  
Time TempWeatherWind HumidityBarometerVisibility
1:00 PM
Tue, Apr 21
97 °FPassing clouds.12 mph39%29.77 "Hg6 mi
12:00 PM93 °FPassing clouds.12 mph49%29.80 "Hg6 mi
11:00 AM91 °FPassing clouds.18 mph56%29.86 "Hg6 mi
10:00 AM91 °FPassing clouds.14 mph56%29.89 "Hg6 mi
9:00 AM88 °FPassing clouds.14 mph59%29.89 "Hg6 mi
8:00 AM84 °FPassing clouds.16 mph62%29.89 "Hg6 mi
7:00 AM82 °FPassing clouds.7 mph70%29.86 "Hg5 mi
6:00 AM81 °FPassing clouds.5 mph70%29.86 "Hg5 mi
5:00 AM79 °FPassing clouds.5 mph79%29.83 "Hg6 mi
4:00 AM81 °FPassing clouds.7 mph70%29.83 "HgN/A
3:00 AM82 °FPassing clouds.7 mph74%29.80 "HgN/A
1:00 AM84 °FPassing clouds.9 mph66%29.80 "HgN/A
12:00 AM84 °FPassing clouds.9 mph66%29.80 "HgN/A
11:00 PM
Mon, Apr 20
81 °FPassing clouds.No wind79%29.80 "HgN/A
10:00 PM82 °FClear.No wind70%29.80 "Hg10 mi
9:00 PM84 °FClear.No wind66%29.77 "Hg10 mi
8:00 PM86 °FClear.7 mph62%29.77 "Hg10 mi
7:00 PM90 °FClear.7 mph49%29.71 "Hg10 mi
6:00 PM93 °FClear.9 mph41%29.71 "Hg10 mi
5:00 PM95 °FPassing clouds.7 mph36%29.68 "Hg6 mi
4:00 PM97 °FPassing clouds.9 mph37%29.68 "Hg6 mi
3:00 PM97 °FPassing clouds.12 mph37%29.71 "Hg6 mi
2:00 PM97 °FPassing clouds.9 mph37%29.74 "HgN/A
1:00 PM95 °FPassing clouds.9 mph39%29.77 "Hg6 mi
Weather by CustomWeather, © 2015

See weather overviewHow to use our weather pages